Погода в Буревестнике

Россия / Нижегородская область     56°08′51″N   43°47′11″E
темп.,
°C
ветер,
м/с
пор.,
м/с
влажн.,
%
обл.,
%
осадки,
мм/ч
давл.,
гПа
погр.,
м
13 мая, чт
чт1300:00+16вюв4107191 0.0 1023401
03:00+14юв397825 0.0 1022261
06:00+15вюв26794 0.0 1022227
09:00+20вюв476440 0.0 1022754
12:00+23вюв7115018 0.0 10201460
15:00+20юв7116999 0.3 1019992
18:00+17юв51283100 1.2 1017765
21:00+16юв3893100 2.2 1017266
14 мая, пт
пт1400:00+14ююз25965 0.0 1018117
03:00+13ююз239793 0.0 101959
06:00+14ююз12925 0.0 101999
09:00+19ю2374100 0.0 1020558
12:00+21ю345778 0.0 10191219
15:00+24ююв354796 0.0 10181931
18:00+22юв36615 0.1 1017467
21:00+19юв387993 0.1 1016187
15 мая, сб
сб1500:00+17ю2990100 1.3 1016216
03:00+17ююв3892100 1.4 1015180
06:00+17юв288989 0.0 1015211
09:00+21ююв4767100 0.0 1014500
12:00+25ю610488 0.0 1013995
15:00+26ю7114960 0.0 10121245
18:00+23ю5115665 0.0 10121093
21:00+19ююз3674100 0.1 1013232
16 мая, вс
вс1600:00+17ююз248463 0.0 1013116
03:00+16ю238843 0.0 101299
06:00+16ююз2584100 0.0 1013185
09:00+21юз467080 0.0 1013720
12:00+23юз585498 0.0 10131584
15:00+24юз59480 0.0 10131996
18:00+22юз59580 0.0 10131210
21:00+17юз38750 0.0 1014241
17 мая, пн
пн1700:00+15зюз2579100 0.0 1015138
03:00+14з12836 0.0 101650
06:00+15з11796 0.0 1017126
09:00+20зсз115924 0.0 1018629
12:00+24св114489 0.0 10171050
15:00+25в114347 0.0 10161359
18:00+24всв23535 0.0 1016523
21:00+19всв246631 0.3 101772